ANA427 RJOO-RJFF

Flight info

Callsign ANA427
Flight time 1h 6m
Altitude 36000
Route TIGER SUMAR AYAME SETOH SOUJA Y281 STOUT Y20 KIRIN
Aircraft B738/M-SDE2E3FGHIRWXY/LB1

Departure

Time 2026-04-27 16:39
Airport Osaka Itami International Airport (RJOO)

Arrival

Time 2026-04-27 17:45
Airport Fukuoka Airport (RJFF)
Time Latitude Longitude Altitude Speed Heading
2026-04-27 16:20 34.79125 135.43922 49 ft 0 kts 67°
2026-04-27 16:28 34.79122 135.43924 47 ft 1 kts 103°
2026-04-27 16:29 34.79051 135.43846 48 ft 11 kts 221°
2026-04-27 16:30 34.78987 135.43829 49 ft 0 kts 136°
2026-04-27 16:33 34.78978 135.43840 48 ft 4 kts 136°
2026-04-27 16:34 34.78944 135.43881 49 ft 9 kts 132°
2026-04-27 16:34 34.78889 135.43949 49 ft 13 kts 136°
2026-04-27 16:34 34.78814 135.44040 49 ft 17 kts 135°
2026-04-27 16:34 34.78733 135.44137 48 ft 11 kts 135°
2026-04-27 16:35 34.78669 135.44215 49 ft 15 kts 135°
2026-04-27 16:35 34.78594 135.44304 47 ft 11 kts 135°
2026-04-27 16:35 34.78438 135.44335 50 ft 9 kts 180°
2026-04-27 16:36 34.78363 135.44335 51 ft 12 kts 179°
2026-04-27 16:36 34.78268 135.44335 52 ft 16 kts 180°
2026-04-27 16:36 34.78149 135.44369 50 ft 20 kts 137°
2026-04-27 16:36 34.78071 135.44464 49 ft 11 kts 135°
2026-04-27 16:37 34.78003 135.44546 48 ft 16 kts 134°
2026-04-27 16:37 34.77916 135.44651 48 ft 19 kts 135°
2026-04-27 16:37 34.77823 135.44765 49 ft 19 kts 136°
2026-04-27 16:37 34.77722 135.44729 50 ft 19 kts 263°
2026-04-27 16:38 34.77771 135.44585 49 ft 18 kts 294°
2026-04-27 16:38 34.77826 135.44452 49 ft 18 kts 310°
2026-04-27 16:38 34.78048 135.44180 52 ft 85 kts 315°
2026-04-27 16:38 34.78640 135.43460 49 ft 153 kts 314°
2026-04-27 16:39 34.79466 135.42454 472 ft 180 kts 315°
2026-04-27 16:39 34.80168 135.41124 1097 ft 200 kts 280°
2026-04-27 16:39 34.79956 135.39436 1723 ft 211 kts 242°
2026-04-27 16:39 34.79055 135.38035 2416 ft 211 kts 215°
2026-04-27 16:40 34.77699 135.37521 2887 ft 213 kts 176°
2026-04-27 16:40 34.76236 135.37953 3246 ft 220 kts 166°
2026-04-27 16:40 34.74730 135.38407 3669 ft 223 kts 182°
2026-04-27 16:40 34.73242 135.38060 4235 ft 217 kts 198°
2026-04-27 16:41 34.71756 135.37615 4754 ft 221 kts 197°
2026-04-27 16:41 34.70246 135.37194 5241 ft 225 kts 196°
2026-04-27 16:41 34.68710 135.36769 5740 ft 228 kts 196°
2026-04-27 16:41 34.67176 135.36269 6263 ft 228 kts 209°
2026-04-27 16:42 34.66078 135.34973 6696 ft 222 kts 249°
2026-04-27 16:42 34.65592 135.33202 7278 ft 220 kts 254°
2026-04-27 16:42 34.65324 135.31380 7792 ft 221 kts 278°
2026-04-27 16:42 34.65678 135.29592 8372 ft 220 kts 283°
2026-04-27 16:43 34.66052 135.27781 8946 ft 221 kts 283°
2026-04-27 16:43 34.66415 135.25960 9574 ft 221 kts 282°
2026-04-27 16:43 34.66767 135.24148 10188 ft 220 kts 282°
2026-04-27 16:43 34.67113 135.22332 10765 ft 220 kts 281°
2026-04-27 16:44 34.67457 135.20514 11351 ft 220 kts 281°
2026-04-27 16:44 34.67795 135.18724 11955 ft 220 kts 281°
2026-04-27 16:44 34.68136 135.16912 12561 ft 220 kts 280°
2026-04-27 16:44 34.68482 135.15096 13196 ft 220 kts 280°
2026-04-27 16:45 34.68828 135.13287 13829 ft 220 kts 279°
2026-04-27 16:45 34.69176 135.11461 14306 ft 226 kts 279°
2026-04-27 16:45 34.69547 135.09507 14451 ft 247 kts 280°
2026-04-27 16:45 34.69948 135.07391 14611 ft 267 kts 280°
2026-04-27 16:46 34.70379 135.05120 14894 ft 281 kts 280°
2026-04-27 16:46 34.70764 135.02741 15246 ft 293 kts 272°
2026-04-27 16:46 34.70716 135.00222 15367 ft 311 kts 271°
2026-04-27 16:46 34.71216 134.97577 15499 ft 331 kts 286°
2026-04-27 16:47 34.71852 134.94815 15609 ft 347 kts 279°
2026-04-27 16:47 34.72142 134.91857 15842 ft 357 kts 270°
2026-04-27 16:47 34.71888 134.88833 16301 ft 361 kts 258°
2026-04-27 16:47 34.71273 134.85872 16897 ft 362 kts 256°
2026-04-27 16:48 34.70596 134.82958 17443 ft 364 kts 255°
2026-04-27 16:48 34.69893 134.79983 17937 ft 367 kts 256°
2026-04-27 16:48 34.69198 134.76993 18421 ft 369 kts 256°
2026-04-27 16:49 34.67817 134.70968 19396 ft 370 kts 256°
2026-04-27 16:49 34.67124 134.67950 19831 ft 371 kts 256°
2026-04-27 16:49 34.66433 134.64964 20261 ft 372 kts 256°
2026-04-27 16:49 34.65724 134.61924 20705 ft 373 kts 256°
2026-04-27 16:50 34.65007 134.58878 21174 ft 374 kts 256°
2026-04-27 16:50 34.64285 134.55836 21614 ft 375 kts 255°
2026-04-27 16:50 34.63554 134.52794 22031 ft 376 kts 255°
2026-04-27 16:50 34.62810 134.49739 22446 ft 377 kts 255°
2026-04-27 16:51 34.62057 134.46687 22847 ft 378 kts 255°
2026-04-27 16:51 34.61309 134.43625 23213 ft 379 kts 256°
2026-04-27 16:51 34.60672 134.40508 23515 ft 382 kts 258°
2026-04-27 16:51 34.60094 134.37384 23779 ft 384 kts 258°
2026-04-27 16:52 34.59517 134.34211 24109 ft 384 kts 258°
2026-04-27 16:52 34.58930 134.31052 24449 ft 384 kts 258°
2026-04-27 16:52 34.58331 134.27893 24749 ft 385 kts 258°
2026-04-27 16:52 34.57727 134.24757 25041 ft 386 kts 258°
2026-04-27 16:53 34.57111 134.21579 25345 ft 387 kts 258°
2026-04-27 16:53 34.56490 134.18391 25659 ft 387 kts 258°
2026-04-27 16:53 34.56068 134.15170 25933 ft 387 kts 268°
2026-04-27 16:53 34.56226 134.11908 26150 ft 390 kts 277°
2026-04-27 16:54 34.56854 134.08693 26405 ft 392 kts 282°
2026-04-27 16:54 34.57570 134.05505 26790 ft 390 kts 282°
2026-04-27 16:54 34.58287 134.02347 27282 ft 386 kts 282°
2026-04-27 16:54 34.58987 133.99228 27837 ft 380 kts 282°
2026-04-27 16:55 34.59659 133.96181 28360 ft 375 kts 282°
2026-04-27 16:55 34.60324 133.93125 28773 ft 373 kts 282°
2026-04-27 16:55 34.60980 133.90079 29165 ft 372 kts 282°
2026-04-27 16:55 34.61631 133.87047 29600 ft 369 kts 282°
2026-04-27 16:56 34.62276 133.84042 30066 ft 366 kts 282°
2026-04-27 16:56 34.62914 133.81061 30489 ft 362 kts 282°
2026-04-27 16:56 34.63514 133.78110 30901 ft 358 kts 278°
2026-04-27 16:56 34.63787 133.75149 31167 ft 357 kts 273°
2026-04-27 16:57 34.63845 133.72136 31446 ft 357 kts 270°
2026-04-27 16:57 34.63664 133.69126 31775 ft 356 kts 264°
2026-04-27 16:57 34.63236 133.66157 31956 ft 358 kts 263°
2026-04-27 16:57 34.62772 133.63170 31970 ft 359 kts 262°
2026-04-27 16:58 34.61832 133.57220 31957 ft 356 kts 262°
2026-04-27 16:58 34.60911 133.51341 31966 ft 357 kts 262°
2026-04-27 16:59 34.59987 133.45405 31970 ft 358 kts 262°
2026-04-27 16:59 34.59060 133.39455 31971 ft 359 kts 262°
2026-04-27 17:00 34.57668 133.30538 31970 ft 359 kts 262°
2026-04-27 17:01 34.56732 133.24565 31931 ft 363 kts 262°
2026-04-27 17:01 34.55776 133.18473 32092 ft 371 kts 262°
2026-04-27 17:02 34.54802 133.12305 32301 ft 375 kts 262°
2026-04-27 17:02 34.54310 133.09201 32540 ft 374 kts 262°
2026-04-27 17:02 34.53820 133.06113 32827 ft 371 kts 262°
2026-04-27 17:02 34.53331 133.03039 33023 ft 371 kts 262°
2026-04-27 17:03 34.52843 132.99971 33265 ft 370 kts 262°
2026-04-27 17:03 34.52357 132.96920 33577 ft 367 kts 262°
2026-04-27 17:03 34.51872 132.93885 33828 ft 365 kts 262°
2026-04-27 17:03 34.51389 132.90861 33987 ft 365 kts 263°
2026-04-27 17:04 34.50905 132.87835 34155 ft 365 kts 262°
2026-04-27 17:04 34.50585 132.85838 34276 ft 364 kts 262°
2026-04-27 17:04 34.49939 132.81809 34472 ft 364 kts 262°
2026-04-27 17:04 34.49459 132.78820 34589 ft 364 kts 262°
2026-04-27 17:05 34.48974 132.75809 34739 ft 364 kts 262°
2026-04-27 17:05 34.48487 132.72799 34897 ft 363 kts 262°
2026-04-27 17:05 34.48163 132.70811 35014 ft 362 kts 262°
2026-04-27 17:05 34.47672 132.67816 35140 ft 362 kts 262°
2026-04-27 17:06 34.47020 132.63850 35247 ft 363 kts 262°
2026-04-27 17:06 34.46189 132.58795 35325 ft 365 kts 262°
2026-04-27 17:06 34.45698 132.55818 35523 ft 364 kts 262°
2026-04-27 17:07 34.45201 132.52807 35696 ft 363 kts 262°
2026-04-27 17:07 34.44706 132.49810 35839 ft 362 kts 262°
2026-04-27 17:07 34.44212 132.46818 35930 ft 362 kts 262°
2026-04-27 17:08 34.43217 132.40812 35973 ft 363 kts 262°
2026-04-27 17:08 34.42225 132.34845 35988 ft 363 kts 262°
2026-04-27 17:09 34.41279 132.28822 35975 ft 363 kts 262°
2026-04-27 17:09 34.40340 132.22809 35965 ft 364 kts 262°
2026-04-27 17:10 34.39397 132.16817 35981 ft 364 kts 262°
2026-04-27 17:10 34.38455 132.10785 35974 ft 364 kts 262°
2026-04-27 17:11 34.37517 132.04798 35995 ft 363 kts 262°
2026-04-27 17:11 34.36097 131.95756 35974 ft 365 kts 262°
2026-04-27 17:12 34.35149 131.89760 35953 ft 353 kts 261°
2026-04-27 17:12 34.34694 131.86903 35968 ft 337 kts 262°
2026-04-27 17:12 34.34265 131.84202 35949 ft 324 kts 262°
2026-04-27 17:13 34.33848 131.81578 35948 ft 311 kts 262°
2026-04-27 17:13 34.33449 131.79061 35948 ft 298 kts 262°
2026-04-27 17:13 34.33061 131.76615 35999 ft 293 kts 262°
2026-04-27 17:13 34.32675 131.74179 35949 ft 296 kts 262°
2026-04-27 17:14 34.32289 131.71753 35994 ft 298 kts 262°
2026-04-27 17:14 34.31486 131.66741 35960 ft 305 kts 262°
2026-04-27 17:15 34.30669 131.61680 35979 ft 307 kts 262°
2026-04-27 17:15 34.29846 131.56602 35966 ft 312 kts 262°
2026-04-27 17:16 34.29012 131.51474 35969 ft 307 kts 262°
2026-04-27 17:16 34.28198 131.46486 35974 ft 300 kts 262°
2026-04-27 17:16 34.27794 131.44007 35963 ft 300 kts 262°
2026-04-27 17:17 34.27396 131.41566 35973 ft 299 kts 262°
2026-04-27 17:17 34.26992 131.39089 35969 ft 298 kts 262°
2026-04-27 17:17 34.26589 131.36629 35981 ft 298 kts 262°
2026-04-27 17:18 34.25780 131.31692 35973 ft 299 kts 262°
2026-04-27 17:18 34.25374 131.29225 35955 ft 299 kts 261°
2026-04-27 17:18 34.24968 131.26755 35966 ft 300 kts 261°
2026-04-27 17:18 34.24563 131.24291 35977 ft 303 kts 261°
2026-04-27 17:19 34.23727 131.19226 35980 ft 311 kts 261°
2026-04-27 17:19 34.22866 131.14022 35975 ft 319 kts 261°
2026-04-27 17:20 34.21987 131.08723 35974 ft 327 kts 261°
2026-04-27 17:20 34.21077 131.03259 35973 ft 335 kts 261°
2026-04-27 17:21 34.19230 130.98086 35970 ft 355 kts 236°
2026-04-27 17:21 34.18723 130.97262 17617 ft 0 kts 253°
2026-04-27 17:21 34.18075 130.95178 14118 ft 337 kts 243°
2026-04-27 17:22 34.16657 130.92896 14347 ft 340 kts 235°
2026-04-27 17:22 34.15356 130.90561 14570 ft 338 kts 243°
2026-04-27 17:22 34.14282 130.88035 14803 ft 338 kts 247°
2026-04-27 17:22 34.13528 130.85993 12776 ft 341 kts 251°
2026-04-27 17:23 34.12623 130.83328 12803 ft 343 kts 249°
2026-04-27 17:23 34.11522 130.80777 12818 ft 342 kts 239°
2026-04-27 17:23 34.10145 130.78435 12828 ft 342 kts 237°
2026-04-27 17:23 34.09061 130.76606 10505 ft 336 kts 240°
2026-04-27 17:24 34.07738 130.74308 10224 ft 331 kts 237°
2026-04-27 17:24 34.06382 130.72068 9997 ft 329 kts 237°
2026-04-27 17:24 34.05060 130.69877 9737 ft 317 kts 237°
2026-04-27 17:24 34.03800 130.67752 9468 ft 306 kts 237°
2026-04-27 17:25 34.02592 130.65691 9201 ft 296 kts 237°
2026-04-27 17:25 34.01425 130.63695 9012 ft 282 kts 238°
2026-04-27 17:25 34.00334 130.61829 8963 ft 263 kts 238°
2026-04-27 17:25 33.99448 130.60009 8956 ft 242 kts 255°
2026-04-27 17:26 33.99149 130.58074 8976 ft 241 kts 268°
2026-04-27 17:26 33.99211 130.56022 8978 ft 247 kts 274°
2026-04-27 17:26 33.99359 130.53947 8974 ft 249 kts 274°
2026-04-27 17:26 33.99504 130.51871 8965 ft 248 kts 274°
2026-04-27 17:27 33.99683 130.49790 8967 ft 252 kts 282°
2026-04-27 17:27 34.00404 130.47868 8980 ft 257 kts 300°
2026-04-27 17:27 34.01486 130.46165 8968 ft 254 kts 305°
2026-04-27 17:27 34.02602 130.44542 8953 ft 247 kts 305°
2026-04-27 17:28 34.03680 130.42962 8950 ft 238 kts 304°
2026-04-27 17:28 34.04707 130.41441 8951 ft 229 kts 304°
2026-04-27 17:28 34.06245 130.38378 8974 ft 205 kts 278°
2026-04-27 17:29 34.06405 130.36661 8972 ft 208 kts 273°
2026-04-27 17:29 34.06503 130.34894 8980 ft 214 kts 272°
2026-04-27 17:29 34.06602 130.33096 8974 ft 214 kts 272°
2026-04-27 17:29 34.06703 130.31305 8959 ft 213 kts 273°
2026-04-27 17:30 34.06804 130.29549 8951 ft 211 kts 273°
2026-04-27 17:30 34.06887 130.26046 8956 ft 208 kts 256°
2026-04-27 17:30 34.06419 130.24374 8986 ft 213 kts 252°
2026-04-27 17:31 34.05937 130.22662 8984 ft 215 kts 253°
2026-04-27 17:31 34.05467 130.20974 8972 ft 214 kts 253°
2026-04-27 17:31 34.04992 130.19273 8963 ft 213 kts 253°
2026-04-27 17:31 34.04520 130.17581 8957 ft 212 kts 253°
2026-04-27 17:32 34.04050 130.15897 8963 ft 211 kts 253°
2026-04-27 17:32 34.02588 130.12869 8990 ft 215 kts 232°
2026-04-27 17:32 34.01597 130.11523 8988 ft 219 kts 233°
2026-04-27 17:33 34.00586 130.10134 8980 ft 220 kts 233°
2026-04-27 17:33 33.99582 130.08752 8966 ft 219 kts 233°
2026-04-27 17:33 33.98581 130.07375 8968 ft 217 kts 233°
2026-04-27 17:33 33.97587 130.06007 8966 ft 216 kts 233°
2026-04-27 17:34 33.96562 130.04683 8952 ft 218 kts 222°
2026-04-27 17:34 33.95208 130.03800 8985 ft 224 kts 211°
2026-04-27 17:34 33.93787 130.02972 8985 ft 228 kts 212°
2026-04-27 17:34 33.92376 130.02137 8976 ft 229 kts 212°
2026-04-27 17:35 33.90934 130.01282 8971 ft 227 kts 212°
2026-04-27 17:35 33.89471 130.00614 8952 ft 234 kts 192°
2026-04-27 17:35 33.87862 130.00909 8981 ft 238 kts 161°
2026-04-27 17:35 33.86559 130.02168 8656 ft 247 kts 127°
2026-04-27 17:36 33.85859 130.04044 8388 ft 245 kts 110°
2026-04-27 17:36 33.85406 130.05981 8096 ft 240 kts 107°
2026-04-27 17:36 33.84995 130.07908 7774 ft 235 kts 106°
2026-04-27 17:36 33.84594 130.09791 7475 ft 230 kts 107°
2026-04-27 17:37 33.84195 130.11628 7192 ft 224 kts 107°
2026-04-27 17:37 33.83800 130.13423 6922 ft 219 kts 107°
2026-04-27 17:37 33.83410 130.15177 6653 ft 215 kts 107°
2026-04-27 17:37 33.83025 130.16896 6393 ft 210 kts 107°
2026-04-27 17:38 33.82644 130.18587 6126 ft 208 kts 108°
2026-04-27 17:38 33.82267 130.20255 5868 ft 205 kts 108°
2026-04-27 17:38 33.81899 130.21881 5619 ft 203 kts 108°
2026-04-27 17:38 33.81530 130.23505 5369 ft 201 kts 108°
2026-04-27 17:39 33.81150 130.25167 5157 ft 216 kts 108°
2026-04-27 17:39 33.80720 130.27036 4855 ft 238 kts 109°
2026-04-27 17:39 33.80277 130.28956 4562 ft 235 kts 112°
2026-04-27 17:39 33.79447 130.30511 4397 ft 215 kts 149°
2026-04-27 17:40 33.78610 130.31112 4256 ft 210 kts 158°
2026-04-27 17:40 33.76906 130.32287 3885 ft 214 kts 155°
2026-04-27 17:40 33.75624 130.33184 3601 ft 210 kts 155°
2026-04-27 17:40 33.74365 130.34049 3319 ft 205 kts 155°
2026-04-27 17:41 33.73155 130.34876 3048 ft 199 kts 155°
2026-04-27 17:41 33.71974 130.35681 2783 ft 191 kts 155°
2026-04-27 17:41 33.70836 130.36457 2528 ft 184 kts 154°
2026-04-27 17:41 33.69756 130.37195 2307 ft 172 kts 154°
2026-04-27 17:42 33.68745 130.37884 2070 ft 161 kts 153°
2026-04-27 17:42 33.67821 130.38515 1866 ft 147 kts 153°
2026-04-27 17:42 33.66970 130.39095 1675 ft 137 kts 153°
2026-04-27 17:42 33.66140 130.39661 1506 ft 139 kts 153°
2026-04-27 17:43 33.65308 130.40229 1317 ft 135 kts 152°
2026-04-27 17:43 33.64488 130.40789 1173 ft 133 kts 152°
2026-04-27 17:43 33.63699 130.41328 965 ft 132 kts 152°
2026-04-27 17:43 33.62917 130.41861 800 ft 129 kts 152°
2026-04-27 17:44 33.62145 130.42400 607 ft 127 kts 151°
2026-04-27 17:44 33.61379 130.42922 439 ft 127 kts 152°
2026-04-27 17:44 33.60608 130.43456 307 ft 129 kts 152°
2026-04-27 17:44 33.59829 130.43986 114 ft 127 kts 152°
2026-04-27 17:45 33.59087 130.44483 26 ft 112 kts 152°
2026-04-27 17:45 33.58582 130.44825 38 ft 56 kts 150°
2026-04-27 17:45 33.58421 130.44934 40 ft 0 kts 150°
2026-04-27 17:46 33.58407 130.44944 40 ft 6 kts 150°
2026-04-27 17:46 33.58363 130.44974 38 ft 8 kts 150°
2026-04-27 17:46 33.58315 130.45006 38 ft 8 kts 150°
2026-04-27 17:46 33.58267 130.45037 37 ft 8 kts 156°
2026-04-27 17:47 33.58210 130.45028 37 ft 9 kts 228°
2026-04-27 17:47 33.58196 130.44975 37 ft 11 kts 271°
2026-04-27 17:47 33.58285 130.44886 35 ft 15 kts 329°
2026-04-27 17:47 33.58383 130.44821 38 ft 17 kts 330°
2026-04-27 17:48 33.58502 130.44741 35 ft 22 kts 330°
2026-04-27 17:48 33.58602 130.44675 35 ft 16 kts 331°
2026-04-27 17:48 33.58667 130.44632 36 ft 13 kts 330°
2026-04-27 17:48 33.58686 130.44587 34 ft 6 kts 255°
2026-04-27 17:49 33.58656 130.44519 32 ft 12 kts 240°
2026-04-27 17:49 33.58633 130.44469 31 ft 0 kts 241°